Content
SEND FEEDBACK

Daily
Averages
Monthly
Summary
United States of America

UKIAH, CALIFORNIA


Home > North America > United States > California
Elevation: 615 feet     Latitude: 39 08N     Longitude: 123 12W

WEATHER
 
SELECT A DAY
Number of Records: 217,159;   Date Range: 1/1/95 - 9/3/14
 
SHARE

PRINT THIS DATA

[ ← Previous Day ]
WEATHER ALMANAC - SEPTEMBER 18, 2013
[ Next Day → ]
[ °C ]   °F
Weather ElementAverageHighLow
Temperature64.7 °F82.9 °F (1:56 pm)46.9 °F (6:56 am)
Dewpoint43.4 °F46 °F (1:56 am)35.1 °F (3:56 pm)
Humidity51.4 %86 % (6:56 am)18 % (3:56 pm)
Barometer29.90 in29.96 in (8:56 am)29.83 in (3:56 pm)
Wind Speed3.2 mph12.7 mph (2:56 pm)
Weather ElementAverage
Visibility10 mi
Wind DirectionESE (109.1 °)

Weather ElementTotal
Precipitation---
Heating Degree Days0.1 (Base 65)
Growing Degree Days14.9 (Base 50)
Averaged from 23 records on September 18, 2013
WEATHER CONDITIONS BREAKOUT
WIND DIRECTION BREAKOUT
WEATHER BY HOUR - SEPTEMBER 18, 2013
[ °C ]   °F
Local TimeTemperatureDewpointHumidityBarometerVisibilityWind DirectionWind SpeedGust SpeedPrecipitationEventsConditions
1:56 AM55.9 °F46.0 °F69 %29.94 in10.0 miCalmClear
2:56 AM55.0 °F46.0 °F72 %29.94 in10.0 miNNW (340°)3.5 mphClear
3:56 AM53.1 °F45.0 °F74 %29.93 in10.0 miCalmClear
4:56 AM50.0 °F44.1 °F80 %29.94 in10.0 miCalmClear
5:56 AM50.0 °F44.1 °F80 %29.94 in10.0 miCalmClear
6:56 AM46.9 °F43.0 °F86 %29.95 in10.0 miCalmClear
7:56 AM51.1 °F45.0 °F80 %29.95 in10.0 miCalmClear
8:56 AM55.9 °F45.0 °F67 %29.96 in10.0 miCalmClear
9:56 AM62.1 °F46.0 °F56 %29.94 in10.0 miCalmClear
10:56 AM68.0 °F45.0 °F43 %29.93 in10.0 miNNE (20°)3.5 mphClear
11:56 AM72.0 °F46.0 °F40 %29.91 in10.0 miEast (100°)3.5 mphClear
12:56 PM78.1 °F46.0 °F32 %29.88 in10.0 miEast (90°)4.6 mphClear
1:56 PM82.9 °F46.0 °F27 %29.86 in10.0 miNNW (340°)9.2 mphClear
2:56 PM82.9 °F41.0 °F23 %29.85 in10.0 miNNW (340°)12.7 mphClear
3:56 PM82.9 °F35.1 °F18 %29.83 in10.0 miNW (320°)9.2 mphClear
4:56 PM82.9 °F39.0 °F21 %29.83 in10.0 miWNW (300°)9.2 mphClear
5:56 PM77.0 °F42.1 °F29 %29.84 in10.0 miWNW (300°)9.2 mphClear
6:56 PM72.0 °F42.1 °F34 %29.86 in10.0 miNorth (360°)8.1 mphClear
7:56 PM70.0 °F42.1 °F36 %29.86 in10.0 miCalmClear
8:56 PM64.0 °F42.1 °F45 %29.87 in10.0 miCalmClear
9:56 PM61.0 °F43.0 °F52 %29.88 in10.0 miCalmClear
10:56 PM57.9 °F42.1 °F56 %29.87 in10.0 miCalmClear
11:56 PM55.9 °F43.0 °F62 %29.87 in10.0 miCalmClear
Hourly data recorded from KUKI, located miles away from Ukiah, California







STORIES FROM OUR PARTNERS